| time (UTC) | temp C | wind direction | speed KPH | gust KPH | rain 1hr cm | rain 24hr cm | rain mn cm | humidity % | barometer mb |
| 20260506202239 | 15 | 11 | 1.6 | 8.0 | 0.00 | 0.86 | 0.86 | 96 | 1009.4 |
| 20260506201736 | 15 | 35 | 0.0 | 4.8 | 0.00 | 0.86 | 0.86 | 96 | 1009.7 |
| 20260506201232 | 15 | 285 | 3.2 | 4.8 | 0.00 | 0.86 | 0.86 | 96 | 1009.5 |
| 20260506200729 | 15 | 17 | 1.6 | 3.2 | 0.00 | 0.86 | 0.86 | 97 | 1009.6 |
| 20260506200226 | 15 | 21 | 1.6 | 3.2 | 0.00 | 0.86 | 0.86 | 97 | 1009.5 |
| 20260506195722 | 15 | 185 | 1.6 | 8.0 | 0.00 | 0.86 | 0.86 | 97 | 1009.6 |
| 20260506195218 | 15 | 349 | 3.2 | 4.8 | 0.00 | 0.86 | 0.86 | 97 | 1009.7 |
| 20260506194710 | 15 | 248 | 0.0 | 11.3 | 0.00 | 0.86 | 0.86 | 97 | 1009.9 |
| 20260506194206 | 15 | 319 | 3.2 | 4.8 | 0.00 | 0.86 | 0.86 | 98 | 1009.7 |
| 20260506193659 | 15 | 23 | 1.6 | 4.8 | 0.00 | 0.86 | 0.86 | 99 | 1009.7 |
| 20260506193155 | 15 | 5 | 3.2 | 8.0 | 0.00 | 0.86 | 0.86 | 99 | 1009.7 |
| 20260506192652 | 15 | 25 | 0.0 | 1.6 | 0.00 | 0.86 | 0.86 | 99 | 1009.9 |
| 20260506192148 | 15 | 19 | 0.0 | 1.6 | 0.00 | 0.86 | 0.86 | 99 | 1009.9 |
| 20260506191646 | 14 | 55 | 0.0 | 4.8 | 0.00 | 0.86 | 0.86 | 99 | 1009.8 |
| 20260506191142 | 14 | 338 | 3.2 | 3.2 | 0.00 | 0.86 | 0.86 | 99 | 1010.0 |
| 20260506190639 | 14 | 31 | 1.6 | 3.2 | 0.00 | 0.86 | 0.86 | 99 | 1009.9 |
| 20260506190135 | 15 | 353 | 1.6 | 3.2 | 0.00 | 0.86 | 0.86 | 99 | 1010.2 |
| 20260506185633 | 15 | 32 | 1.6 | 3.2 | 0.00 | 0.86 | 0.86 | 99 | 1010.0 |
| 20260506185129 | 15 | 24 | 0.0 | 3.2 | 0.00 | 0.86 | 0.86 | 99 | 1010.0 |
| 20260506184626 | 15 | 18 | 1.6 | 3.2 | 0.00 | 0.86 | 0.86 | 99 | 1010.1 |
| 20260506184123 | 14 | 343 | 3.2 | 9.7 | 0.00 | 0.86 | 0.86 | 99 | 1010.0 |
| 20260506183620 | 14 | 353 | 4.8 | 4.8 | 0.00 | 0.86 | 0.86 | 99 | 1010.1 |
| 20260506183116 | 15 | 321 | 4.8 | 4.8 | 0.00 | 0.86 | 0.86 | 99 | 1010.2 |
| 20260506182614 | 14 | 54 | 1.6 | 8.0 | 0.00 | 0.86 | 0.86 | 99 | 1010.0 |
| 20260506182111 | 14 | 30 | 1.6 | 4.8 | 0.00 | 0.86 | 0.86 | 99 | 1010.1 |
| 20260506181609 | 14 | 47 | 1.6 | 1.6 | 0.00 | 0.86 | 0.86 | 99 | 1010.3 |
| 20260506181105 | 14 | 37 | 0.0 | 8.0 | 0.00 | 0.86 | 0.86 | 99 | 1010.1 |
| 20260506180602 | 14 | 83 | 3.2 | 8.0 | 0.00 | 0.86 | 0.86 | 99 | 1010.3 |
| 20260506180059 | 14 | 62 | 1.6 | 3.2 | 0.00 | 0.86 | 0.86 | 99 | 1010.5 |
| 20260506175555 | 14 | 33 | 0.0 | 4.8 | 0.13 | 0.86 | 0.86 | 99 | 1010.4 |
| 20260506175051 | 14 | 7 | 1.6 | 3.2 | 0.13 | 0.86 | 0.86 | 99 | 1010.3 |
| 20260506174550 | 14 | 22 | 0.0 | 1.6 | 0.00 | 0.84 | 0.84 | 99 | 1010.5 |
| 20260506174045 | 14 | 32 | 1.6 | 3.2 | 0.18 | 0.84 | 0.84 | 99 | 1010.3 |
| 20260506173538 | 14 | 21 | 1.6 | 4.8 | 0.18 | 0.84 | 0.84 | 99 | 1010.7 |
| 20260506173034 | 14 | 41 | 0.0 | 3.2 | 0.13 | 0.81 | 0.81 | 99 | 1010.5 |
| 20260506172532 | 14 | 34 | 0.0 | 4.8 | 0.13 | 0.81 | 0.81 | 99 | 1010.5 |
| 20260506172028 | 14 | 34 | 0.0 | 1.6 | 0.18 | 0.79 | 0.79 | 99 | 1010.7 |
| 20260506171525 | 14 | 64 | 1.6 | 3.2 | 0.18 | 0.79 | 0.79 | 99 | 1010.7 |
| 20260506171023 | 14 | 31 | 0.0 | 1.6 | 0.13 | 0.76 | 0.76 | 99 | 1010.5 |
| 20260506170520 | 14 | 36 | 0.0 | 3.2 | 0.13 | 0.76 | 0.76 | 99 | 1010.5 |
| 20260506170017 | 13 | 31 | 0.0 | 0.0 | 0.00 | 0.74 | 0.74 | 99 | 1010.4 |
| 20260506165515 | 14 | 33 | 0.0 | 1.6 | 0.00 | 0.74 | 0.74 | 99 | 1010.5 |
| 20260506165006 | 14 | 39 | 0.0 | 0.0 | 0.00 | 0.74 | 0.74 | 99 | 1010.4 |
| 20260506164503 | 14 | 64 | 1.6 | 3.2 | 0.00 | 0.74 | 0.74 | 99 | 1010.5 |
| 20260506164000 | 14 | 37 | 0.0 | 3.2 | 0.18 | 0.74 | 0.74 | 99 | 1010.4 |
| 20260506163455 | 13 | 63 | 0.0 | 1.6 | 0.18 | 0.74 | 0.74 | 99 | 1010.5 |
| 20260506162949 | 13 | 68 | 1.6 | 1.6 | 0.18 | 0.71 | 0.71 | 99 | 1010.4 |
| 20260506162447 | 13 | 20 | 1.6 | 4.8 | 0.18 | 0.71 | 0.71 | 99 | 1010.7 |
| 20260506161940 | 13 | 16 | 4.8 | 8.0 | 0.13 | 0.69 | 0.69 | 99 | 1010.7 |
| 20260506161437 | 13 | 359 | 1.6 | 1.6 | 0.43 | 0.69 | 0.69 | 99 | 1011.0 |
| 20260506160934 | 14 | 38 | 0.0 | 1.6 | 0.43 | 0.64 | 0.64 | 99 | 1011.0 |
| 20260506160432 | 13 | 31 | 0.0 | 1.6 | 0.30 | 0.58 | 0.58 | 99 | 1011.1 |
| 20260506155929 | 14 | 73 | 0.0 | 4.8 | 0.30 | 0.56 | 0.56 | 99 | 1010.8 |
| 20260506155426 | 14 | 37 | 0.0 | 1.6 | 0.43 | 0.53 | 0.53 | 99 | 1010.8 |
| 20260506153548 | 14 | 163 | 1.6 | 4.8 | 0.36 | 0.41 | 0.41 | 99 | 1011.1 |
| 20260506153045 | 14 | 71 | 1.6 | 1.6 | 0.30 | 0.38 | 0.38 | 99 | 1011.3 |
| 20260506152542 | 14 | 137 | 3.2 | 4.8 | 0.13 | 0.36 | 0.36 | 99 | 1011.0 |
| 20260506152040 | 14 | 15 | 0.0 | 1.6 | 0.18 | 0.33 | 0.33 | 99 | 1010.9 |
| 20260506151538 | 14 | 34 | 0.0 | 3.2 | 0.00 | 0.30 | 0.30 | 98 | 1011.2 |
| 20260506151035 | 14 | 64 | 0.0 | 3.2 | 0.13 | 0.30 | 0.30 | 98 | 1011.0 |
| 20260506150531 | 14 | 31 | 1.6 | 3.2 | 0.13 | 0.30 | 0.30 | 98 | 1010.9 |
| 20260506150029 | 14 | 43 | 3.2 | 3.2 | 0.00 | 0.28 | 0.28 | 98 | 1010.9 |
| 20260506145525 | 14 | 111 | 4.8 | 4.8 | 0.00 | 0.28 | 0.28 | 98 | 1010.9 |
| 20260506145023 | 14 | 39 | 1.6 | 8.0 | 0.18 | 0.28 | 0.28 | 98 | 1010.9 |
| 20260506144519 | 13 | 20 | 3.2 | 9.7 | 0.18 | 0.28 | 0.28 | 98 | 1011.0 |
| 20260506144017 | 13 | 50 | 0.0 | 4.8 | 0.13 | 0.25 | 0.25 | 98 | 1011.1 |
| 20260506143514 | 13 | 169 | 6.4 | 8.0 | 0.13 | 0.25 | 0.25 | 98 | 1011.2 |
| 20260506143013 | 13 | 43 | 0.0 | 8.0 | 0.18 | 0.23 | 0.23 | 98 | 1011.1 |
| 20260506142510 | 13 | 62 | 0.0 | 3.2 | 0.18 | 0.23 | 0.23 | 98 | 1011.2 |
| 20260506142008 | 13 | 63 | 1.6 | 3.2 | 0.13 | 0.20 | 0.20 | 98 | 1011.3 |
| 20260506141506 | 13 | 40 | 0.0 | 3.2 | 0.30 | 0.20 | 0.20 | 98 | 1011.5 |
| 20260506141004 | 13 | 43 | 0.0 | 1.6 | 0.18 | 0.18 | 0.18 | 98 | 1011.4 |
| 20260506140501 | 13 | 45 | 4.8 | 8.0 | 0.00 | 0.15 | 0.15 | 97 | 1011.6 |
| 20260506135957 | 13 | 37 | 0.0 | 4.8 | 0.13 | 0.15 | 0.15 | 97 | 1011.6 |
| 20260506135455 | 13 | 346 | 3.2 | 3.2 | 0.13 | 0.15 | 0.15 | 97 | 1011.8 |
| 20260506134950 | 13 | 211 | 3.2 | 4.8 | 0.00 | 0.13 | 0.13 | 97 | 1011.5 |
| 20260506134446 | 14 | 103 | 3.2 | 4.8 | 0.00 | 0.13 | 0.13 | 97 | 1011.7 |
| 20260506133943 | 13 | 155 | 1.6 | 9.7 | 0.00 | 0.13 | 0.13 | 96 | 1011.8 |
| 20260506133441 | 14 | 179 | 6.4 | 8.0 | 0.18 | 0.13 | 0.13 | 96 | 1011.9 |
| 20260506132937 | 14 | 8 | 1.6 | 8.0 | 0.13 | 0.10 | 0.10 | 96 | 1011.9 |
| 20260506132434 | 14 | 9 | 1.6 | 8.0 | 0.30 | 0.10 | 0.10 | 95 | 1012.0 |
| 20260506131932 | 14 | 359 | 1.6 | 8.0 | 0.36 | 0.08 | 0.08 | 94 | 1012.2 |
| 20260506131428 | 14 | 17 | 3.2 | 14.5 | 0.18 | 0.05 | 0.05 | 93 | 1012.2 |
| 20260506130925 | 15 | 42 | 0.0 | 3.2 | 0.13 | 0.03 | 0.03 | 93 | 1012.1 |
| 20260506130422 | 15 | 37 | 0.0 | 3.2 | 0.13 | 0.03 | 0.03 | 91 | 1011.9 |
| 20260506125920 | 15 | 37 | 1.6 | 9.7 | 0.00 | 0.00 | 0.00 | 88 | 1011.8 |
| 20260506125418 | 15 | 10 | 4.8 | 11.3 | 0.00 | 0.00 | 0.00 | 87 | 1011.8 |
| 20260506124916 | 15 | 44 | 3.2 | 12.9 | 0.00 | 0.00 | 0.00 | 85 | 1011.5 |
| 20260506124413 | 15 | 31 | 0.0 | 4.8 | 0.00 | 0.00 | 0.00 | 85 | 1011.6 |
| 20260506123911 | 15 | 61 | 0.0 | 1.6 | 0.00 | 0.00 | 0.00 | 84 | 1011.7 |
| 20260506123409 | 16 | 183 | 8.0 | 16.1 | 0.00 | 0.00 | 0.00 | 83 | 1011.5 |
| 20260506122906 | 16 | 130 | 6.4 | 11.3 | 0.00 | 0.00 | 0.00 | 81 | 1011.3 |
| 20260506122402 | 16 | 218 | 3.2 | 9.7 | 0.00 | 0.00 | 0.00 | 80 | 1011.5 |
| 20260506121901 | 16 | 305 | 3.2 | 8.0 | 0.00 | 0.00 | 0.00 | 79 | 1011.3 |
| 20260506121357 | 16 | 31 | 1.6 | 11.3 | 0.00 | 0.00 | 0.00 | 78 | 1011.5 |
| 20260506120854 | 16 | 351 | 4.8 | 9.7 | 0.00 | 0.00 | 0.00 | 78 | 1011.7 |
| 20260506120352 | 16 | 76 | 4.8 | 8.0 | 0.00 | 0.00 | 0.00 | 78 | 1011.6 |
| 20260506115849 | 16 | 10 | 0.0 | 4.8 | 0.00 | 0.00 | 0.00 | 78 | 1011.6 |
| 20260506115347 | 16 | 134 | 8.0 | 9.7 | 0.00 | 0.00 | 0.00 | 76 | 1011.7 |
| 20260506114845 | 16 | 71 | 1.6 | 3.2 | 0.00 | 0.00 | 0.00 | 77 | 1011.7 |
| 20260506114342 | 16 | 148 | 4.8 | 9.7 | 0.00 | 0.00 | 0.00 | 76 | 1011.5 |
| 20260506113841 | 16 | 54 | 1.6 | 8.0 | 0.00 | 0.00 | 0.00 | 76 | 1011.6 |
| 20260506113338 | 16 | 58 | 1.6 | 3.2 | 0.00 | 0.00 | 0.00 | 76 | 1011.6 |
| 20260506112834 | 16 | 86 | 1.6 | 8.0 | 0.00 | 0.00 | 0.00 | 75 | 1011.6 |
| 20260506112332 | 16 | 39 | 0.0 | 1.6 | 0.00 | 0.00 | 0.00 | 75 | 1011.6 |
| 20260506111829 | 16 | 38 | 3.2 | 8.0 | 0.00 | 0.00 | 0.00 | 75 | 1011.5 |
| 20260506111328 | 16 | 43 | 3.2 | 3.2 | 0.00 | 0.00 | 0.00 | 73 | 1011.5 |
| 20260506110825 | 16 | 56 | 3.2 | 4.8 | 0.00 | 0.00 | 0.00 | 73 | 1011.7 |
| 20260506110321 | 16 | 59 | 1.6 | 4.8 | 0.00 | 0.00 | 0.00 | 73 | 1011.5 |
| 20260506105818 | 16 | 35 | 1.6 | 4.8 | 0.00 | 0.00 | 0.00 | 72 | 1011.5 |
| 20260506105315 | 16 | 40 | 0.0 | 3.2 | 0.00 | 0.00 | 0.00 | 72 | 1011.2 |
| 20260506104812 | 16 | 103 | 3.2 | 8.0 | 0.00 | 0.00 | 0.00 | 71 | 1010.9 |
| 20260506104310 | 16 | 59 | 1.6 | 11.3 | 0.00 | 0.00 | 0.00 | 70 | 1011.0 |
| 20260506103807 | 16 | 45 | 8.0 | 16.1 | 0.00 | 0.00 | 0.00 | 70 | 1011.2 |
| 20260506103305 | 16 | 57 | 4.8 | 9.7 | 0.00 | 0.00 | 0.00 | 70 | 1011.2 |
| 20260506102802 | 16 | 209 | 3.2 | 8.0 | 0.00 | 0.00 | 0.00 | 71 | 1011.1 |
| 20260506102300 | 16 | 44 | 1.6 | 8.0 | 0.00 | 0.00 | 0.00 | 70 | 1011.0 |
| 20260506101757 | 16 | 75 | 0.0 | 4.8 | 0.00 | 0.00 | 0.00 | 70 | 1010.8 |
| 20260506101253 | 16 | 227 | 9.7 | 14.5 | 0.00 | 0.00 | 0.00 | 69 | 1011.0 |
| 20260506100751 | 16 | 25 | 0.0 | 1.6 | 0.00 | 0.00 | 0.00 | 70 | 1011.2 |
| 20260506100249 | 16 | 125 | 4.8 | 8.0 | 0.00 | 0.00 | 0.00 | 69 | 1011.1 |
| 20260506095747 | 16 | 39 | 1.6 | 4.8 | 0.00 | 0.00 | 0.00 | 69 | 1011.2 |
| 20260506095244 | 16 | 1 | 0.0 | 3.2 | 0.00 | 0.00 | 0.00 | 70 | 1011.1 |
| 20260506094740 | 16 | 356 | 1.6 | 4.8 | 0.00 | 0.00 | 0.00 | 69 | 1011.1 |
| 20260506094239 | 16 | 43 | 1.6 | 3.2 | 0.00 | 0.00 | 0.00 | 68 | 1010.9 |
| 20260506093737 | 16 | 62 | 1.6 | 8.0 | 0.00 | 0.00 | 0.00 | 68 | 1011.0 |
| 20260506093234 | 16 | 33 | 3.2 | 9.7 | 0.00 | 0.00 | 0.00 | 67 | 1011.0 |
| 20260506092732 | 16 | 35 | 1.6 | 9.7 | 0.00 | 0.00 | 0.00 | 67 | 1011.0 |
| 20260506092230 | 16 | 213 | 4.8 | 8.0 | 0.00 | 0.00 | 0.00 | 67 | 1010.9 |
| 20260506091726 | 16 | 351 | 1.6 | 1.6 | 0.00 | 0.00 | 0.00 | 67 | 1011.1 |
| 20260506091224 | 16 | 33 | 0.0 | 1.6 | 0.00 | 0.00 | 0.00 | 68 | 1011.2 |
| 20260506090721 | 16 | 38 | 0.0 | 1.6 | 0.00 | 0.00 | 0.00 | 67 | 1011.3 |
| 20260506090218 | 16 | 40 | 0.0 | 4.8 | 0.00 | 0.00 | 0.00 | 66 | 1011.1 |
| 20260506085710 | 16 | 79 | 4.8 | 4.8 | 0.00 | 0.00 | 0.00 | 66 | 1011.3 |
| 20260506085206 | 16 | 24 | 1.6 | 4.8 | 0.00 | 0.00 | 0.00 | 66 | 1011.5 |
| 20260506084702 | 16 | 6 | 1.6 | 3.2 | 0.00 | 0.00 | 0.00 | 66 | 1011.4 |
| 20260506084159 | 16 | 92 | 3.2 | 3.2 | 0.00 | 0.00 | 0.00 | 65 | 1011.3 |
| 20260506083655 | 17 | 351 | 1.6 | 8.0 | 0.00 | 0.00 | 0.00 | 64 | 1011.4 |
| 20260506083154 | 17 | 296 | 4.8 | 4.8 | 0.00 | 0.00 | 0.00 | 64 | 1011.4 |
| 20260506082650 | 17 | 327 | 3.2 | 9.7 | 0.00 | 0.00 | 0.00 | 63 | 1011.2 |
| 20260506082145 | 17 | 281 | 3.2 | 8.0 | 0.00 | 0.00 | 0.00 | 63 | 1011.3 |
| 20260506081643 | 17 | 341 | 1.6 | 4.8 | 0.00 | 0.00 | 0.00 | 64 | 1011.2 |
| 20260506081141 | 17 | 23 | 0.0 | 3.2 | 0.00 | 0.00 | 0.00 | 63 | 1011.3 |
| 20260506080638 | 17 | 106 | 1.6 | 3.2 | 0.00 | 0.00 | 0.00 | 63 | 1011.3 |
| 20260506080135 | 17 | 112 | 3.2 | 3.2 | 0.00 | 0.00 | 0.00 | 63 | 1011.5 |
| 20260506073119 | 17 | 29 | 1.6 | 4.8 | 0.00 | 0.00 | 0.00 | 61 | 1011.5 |
| 20260506072615 | 17 | 344 | 3.2 | 8.0 | 0.00 | 0.00 | 0.00 | 61 | 1011.7 |
| 20260506072114 | 17 | 290 | 3.2 | 11.3 | 0.00 | 0.00 | 0.00 | 61 | 1011.5 |
| 20260506071611 | 17 | 121 | 4.8 | 4.8 | 0.00 | 0.00 | 0.00 | 61 | 1011.5 |
| 20260506071108 | 17 | 65 | 3.2 | 8.0 | 0.00 | 0.00 | 0.00 | 61 | 1011.5 |
| 20260506070605 | 17 | 42 | 1.6 | 4.8 | 0.00 | 0.00 | 0.00 | 60 | 1011.6 |
| 20260506062039 | 17 | 18 | 4.8 | 11.3 | 0.00 | 0.00 | 0.00 | 59 | 1012.0 |
| 20260506061535 | 17 | 160 | 6.4 | 11.3 | 0.00 | 0.00 | 0.00 | 59 | 1011.8 |
| 20260506061033 | 17 | 20 | 3.2 | 8.0 | 0.00 | 0.00 | 0.00 | 60 | 1012.2 |
| 20260506060531 | 17 | 72 | 0.0 | 3.2 | 0.00 | 0.00 | 0.00 | 61 | 1012.0 |
| 20260506051000 | 17 | 23 | 0.0 | 3.2 | 0.00 | 0.00 | 0.00 | 61 | 1012.2 |
| 20260506050458 | 17 | 83 | 1.6 | 3.2 | 0.00 | 0.00 | 0.00 | 61 | 1012.2 |
| 20260506044948 | 17 | 14 | 1.6 | 8.0 | 0.00 | 0.00 | 0.00 | 60 | 1012.6 |
| 20260506044446 | 16 | 21 | 0.0 | 8.0 | 0.00 | 0.00 | 0.00 | 61 | 1012.7 |
| 20260506043943 | 16 | 31 | 0.0 | 3.2 | 0.00 | 0.00 | 0.00 | 61 | 1012.5 |
| 20260506043440 | 17 | 174 | 4.8 | 4.8 | 0.00 | 0.00 | 0.00 | 61 | 1012.5 |
| 20260506042938 | 17 | 33 | 0.0 | 1.6 | 0.00 | 0.00 | 0.00 | 61 | 1012.7 |
| 20260506042437 | 17 | 12 | 0.0 | 3.2 | 0.00 | 0.00 | 0.00 | 61 | 1012.7 |
| 20260506041935 | 17 | 29 | 0.0 | 3.2 | 0.00 | 0.00 | 0.00 | 60 | 1012.6 |
| 20260506041432 | 17 | 0 | 0.0 | 4.8 | 0.00 | 0.00 | 0.00 | 61 | 1012.5 |
| 20260506040929 | 17 | 61 | 1.6 | 4.8 | 0.00 | 0.00 | 0.00 | 59 | 1012.7 |
| 20260506040427 | 17 | 25 | 0.0 | 1.6 | 0.00 | 0.00 | 0.00 | 60 | 1012.6 |
| 20260506035923 | 17 | 40 | 0.0 | 4.8 | 0.00 | 0.08 | 0.08 | 59 | 1012.7 |
| 20260506035420 | 17 | 24 | 1.6 | 3.2 | 0.00 | 0.08 | 0.08 | 58 | 1012.8 |
| 20260506034917 | 17 | 57 | 0.0 | 4.8 | 0.00 | 0.08 | 0.08 | 58 | 1012.7 |
| 20260506034414 | 17 | 51 | 0.0 | 1.6 | 0.00 | 0.08 | 0.08 | 59 | 1012.7 |
| 20260506033911 | 17 | 24 | 1.6 | 3.2 | 0.00 | 0.08 | 0.08 | 57 | 1012.8 |
| 20260506033409 | 17 | 44 | 0.0 | 1.6 | 0.00 | 0.08 | 0.08 | 57 | 1012.7 |
| 20260506032905 | 17 | 49 | 0.0 | 1.6 | 0.00 | 0.08 | 0.08 | 57 | 1012.7 |
| 20260506032402 | 17 | 29 | 0.0 | 4.8 | 0.00 | 0.08 | 0.08 | 57 | 1012.7 |
| 20260506031859 | 17 | 13 | 0.0 | 3.2 | 0.00 | 0.08 | 0.08 | 57 | 1012.4 |
| 20260506031356 | 17 | 48 | 0.0 | 0.0 | 0.00 | 0.08 | 0.08 | 57 | 1012.5 |
| 20260506030854 | 17 | 49 | 0.0 | 1.6 | 0.00 | 0.08 | 0.08 | 56 | 1012.5 |
| 20260506030352 | 18 | 40 | 0.0 | 0.0 | 0.00 | 0.08 | 0.08 | 56 | 1012.6 |
| 20260506025848 | 18 | 76 | 1.6 | 3.2 | 0.00 | 0.08 | 0.08 | 54 | 1012.4 |
| 20260506025344 | 18 | 31 | 0.0 | 1.6 | 0.00 | 0.08 | 0.08 | 55 | 1012.4 |
| 20260506024842 | 18 | 46 | 1.6 | 8.0 | 0.00 | 0.08 | 0.08 | 54 | 1012.5 |
| 20260506024338 | 18 | 124 | 4.8 | 9.7 | 0.00 | 0.08 | 0.08 | 55 | 1012.6 |
| 20260506023835 | 18 | 42 | 0.0 | 1.6 | 0.00 | 0.08 | 0.08 | 55 | 1012.5 |
| 20260506023331 | 19 | 37 | 1.6 | 4.8 | 0.00 | 0.08 | 0.08 | 53 | 1012.5 |
| 20260506022828 | 19 | 54 | 1.6 | 3.2 | 0.00 | 0.08 | 0.08 | 54 | 1012.5 |
| 20260506022326 | 19 | 32 | 0.0 | 4.8 | 0.00 | 0.08 | 0.08 | 53 | 1012.4 |
| 20260506021824 | 19 | 39 | 0.0 | 1.6 | 0.00 | 0.08 | 0.08 | 54 | 1012.5 |
| 20260506021321 | 20 | 49 | 0.0 | 3.2 | 0.00 | 0.08 | 0.08 | 53 | 1012.5 |
| 20260506020817 | 20 | 39 | 0.0 | 8.0 | 0.00 | 0.08 | 0.08 | 52 | 1012.5 |
| 20260506020315 | 20 | 115 | 8.0 | 9.7 | 0.00 | 0.08 | 0.08 | 50 | 1012.5 |
| 20260506015813 | 20 | 210 | 1.6 | 3.2 | 0.00 | 0.08 | 0.08 | 51 | 1012.3 |
| 20260506015310 | 20 | 101 | 4.8 | 8.0 | 0.00 | 0.08 | 0.08 | 50 | 1012.3 |
| 20260506014806 | 20 | 46 | 0.0 | 9.7 | 0.00 | 0.08 | 0.08 | 51 | 1012.4 |
| 20260506014303 | 20 | 35 | 0.0 | 3.2 | 0.00 | 0.08 | 0.08 | 52 | 1012.5 |
| 20260506013800 | 20 | 314 | 1.6 | 3.2 | 0.00 | 0.08 | 0.08 | 52 | 1012.2 |
| 20260506013257 | 20 | 338 | 1.6 | 3.2 | 0.00 | 0.08 | 0.08 | 51 | 1012.3 |
| 20260506012754 | 20 | 62 | 1.6 | 4.8 | 0.00 | 0.08 | 0.08 | 51 | 1012.2 |
| 20260506012251 | 20 | 93 | 0.0 | 3.2 | 0.00 | 0.08 | 0.08 | 50 | 1012.1 |
| 20260506011748 | 20 | 22 | 1.6 | 3.2 | 0.00 | 0.08 | 0.08 | 50 | 1012.2 |
| 20260506011244 | 20 | 71 | 1.6 | 3.2 | 0.00 | 0.08 | 0.08 | 49 | 1012.1 |
| 20260506010743 | 20 | 33 | 0.0 | 3.2 | 0.00 | 0.08 | 0.08 | 50 | 1011.8 |
| 20260506010240 | 20 | 44 | 0.0 | 3.2 | 0.00 | 0.08 | 0.08 | 50 | 1011.9 |
| 20260506005737 | 20 | 43 | 0.0 | 3.2 | 0.00 | 0.08 | 0.08 | 51 | 1012.0 |
| 20260506005233 | 20 | 359 | 1.6 | 3.2 | 0.00 | 0.08 | 0.08 | 48 | 1011.7 |
| 20260506004729 | 20 | 39 | 0.0 | 0.0 | 0.00 | 0.08 | 0.08 | 49 | 1012.0 |
| 20260506004227 | 21 | 89 | 1.6 | 4.8 | 0.00 | 0.08 | 0.08 | 47 | 1012.0 |
| 20260506003723 | 21 | 38 | 0.0 | 1.6 | 0.00 | 0.08 | 0.08 | 48 | 1012.0 |
| 20260506003220 | 21 | 45 | 3.2 | 4.8 | 0.00 | 0.08 | 0.08 | 47 | 1011.8 |
| 20260506002715 | 21 | 25 | 0.0 | 1.6 | 0.00 | 0.08 | 0.08 | 47 | 1011.7 |
| 20260506002212 | 21 | 42 | 0.0 | 4.8 | 0.00 | 0.08 | 0.08 | 47 | 1011.4 |
| 20260506001708 | 21 | 27 | 3.2 | 9.7 | 0.00 | 0.08 | 0.08 | 47 | 1011.7 |
| 20260506001206 | 21 | 3 | 1.6 | 8.0 | 0.00 | 0.08 | 0.08 | 47 | 1011.5 |
| 20260506000702 | 21 | 40 | 0.0 | 4.8 | 0.00 | 0.08 | 0.08 | 48 | 1011.4 |
| 20260506000200 | 21 | 13 | 1.6 | 3.2 | 0.00 | 0.08 | 0.08 | 47 | 1011.5 |
| 20260505235657 | 21 | 54 | 0.0 | 8.0 | 0.00 | 0.08 | 0.08 | 48 | 1011.5 |
| 20260505235155 | 21 | 25 | 0.0 | 1.6 | 0.00 | 0.08 | 0.08 | 47 | 1011.5 |
| 20260505234651 | 21 | 204 | 1.6 | 1.6 | 0.00 | 0.08 | 0.08 | 46 | 1011.4 |
| 20260505234149 | 21 | 10 | 1.6 | 4.8 | 0.00 | 0.08 | 0.08 | 46 | 1011.3 |
| 20260505233645 | 21 | 5 | 1.6 | 3.2 | 0.00 | 0.08 | 0.08 | 47 | 1011.2 |
| 20260505233143 | 21 | 307 | 3.2 | 4.8 | 0.00 | 0.08 | 0.08 | 47 | 1011.3 |
| 20260505232640 | 21 | 188 | 8.0 | 11.3 | 0.00 | 0.08 | 0.08 | 45 | 1011.1 |
| 20260505232138 | 21 | 349 | 8.0 | 9.7 | 0.00 | 0.08 | 0.08 | 46 | 1011.5 |
| 20260505231634 | 21 | 29 | 0.0 | 4.8 | 0.00 | 0.08 | 0.08 | 48 | 1011.4 |
| 20260505231133 | 21 | 34 | 0.0 | 3.2 | 0.00 | 0.08 | 0.08 | 51 | 1011.3 |
| 20260505230631 | 21 | 358 | 1.6 | 4.8 | 0.00 | 0.08 | 0.08 | 49 | 1011.3 |
| 20260505230127 | 21 | 24 | 1.6 | 3.2 | 0.00 | 0.08 | 0.08 | 49 | 1011.2 |
| 20260505225623 | 21 | 64 | 1.6 | 3.2 | 0.00 | 0.08 | 0.08 | 48 | 1011.3 |
| 20260505225120 | 21 | 44 | 0.0 | 3.2 | 0.00 | 0.08 | 0.08 | 50 | 1011.2 |
| 20260505224616 | 21 | 41 | 0.0 | 3.2 | 0.00 | 0.08 | 0.08 | 51 | 1011.0 |
| 20260505224114 | 22 | 36 | 0.0 | 3.2 | 0.00 | 0.08 | 0.08 | 46 | 1011.0 |
| 20260505223611 | 22 | 8 | 3.2 | 9.7 | 0.00 | 0.08 | 0.08 | 47 | 1011.2 |
| 20260505223107 | 22 | 284 | 6.4 | 8.0 | 0.00 | 0.08 | 0.08 | 47 | 1011.0 |
| 20260505222603 | 21 | 6 | 1.6 | 3.2 | 0.00 | 0.08 | 0.08 | 49 | 1011.1 |
| 20260505222059 | 21 | 17 | 1.6 | 9.7 | 0.00 | 0.08 | 0.08 | 51 | 1011.1 |
| 20260505221557 | 21 | 27 | 0.0 | 4.8 | 0.00 | 0.08 | 0.08 | 54 | 1011.1 |
| 20260505221053 | 21 | 42 | 0.0 | 3.2 | 0.00 | 0.08 | 0.08 | 55 | 1011.2 |
| 20260505220550 | 21 | 31 | 0.0 | 0.0 | 0.00 | 0.08 | 0.08 | 56 | 1011.0 |
| 20260505220048 | 21 | 40 | 0.0 | 1.6 | 0.00 | 0.08 | 0.08 | 53 | 1010.9 |
| 20260505215546 | 21 | 7 | 1.6 | 1.6 | 0.00 | 0.08 | 0.08 | 52 | 1010.8 |
| 20260505215044 | 21 | 31 | 1.6 | 3.2 | 0.00 | 0.08 | 0.08 | 52 | 1011.0 |
| 20260505214542 | 21 | 12 | 1.6 | 1.6 | 0.00 | 0.08 | 0.08 | 52 | 1010.9 |
| 20260505214038 | 21 | 21 | 0.0 | 1.6 | 0.00 | 0.08 | 0.08 | 50 | 1011.0 |
| 20260505213536 | 22 | 196 | 3.2 | 8.0 | 0.00 | 0.08 | 0.08 | 50 | 1010.9 |
| 20260505213032 | 21 | 72 | 1.6 | 8.0 | 0.00 | 0.08 | 0.08 | 51 | 1010.9 |
| 20260505212529 | 22 | 178 | 6.4 | 14.5 | 0.00 | 0.08 | 0.08 | 50 | 1011.1 |
| 20260505212026 | 22 | 19 | 9.7 | 11.3 | 0.00 | 0.08 | 0.08 | 48 | 1011.2 |
| 20260505211523 | 22 | 178 | 4.8 | 11.3 | 0.00 | 0.08 | 0.08 | 44 | 1010.8 |
| 20260505211019 | 23 | 16 | 3.2 | 14.5 | 0.00 | 0.08 | 0.08 | 43 | 1010.4 |
| 20260505210516 | 23 | 12 | 4.8 | 8.0 | 0.00 | 0.08 | 0.08 | 41 | 1010.3 |
| 20260505210014 | 23 | 191 | 6.4 | 12.9 | 0.00 | 0.08 | 0.08 | 40 | 1010.1 |
| 20260505205512 | 23 | 168 | 8.0 | 11.3 | 0.00 | 0.08 | 0.08 | 43 | 1010.2 |
| 20260505205008 | 23 | 340 | 4.8 | 11.3 | 0.00 | 0.08 | 0.08 | 42 | 1010.5 |
| 20260505204506 | 23 | 212 | 4.8 | 8.0 | 0.00 | 0.08 | 0.08 | 41 | 1010.1 |
| 20260505204003 | 23 | 170 | 6.4 | 9.7 | 0.00 | 0.08 | 0.08 | 40 | 1010.2 |
| 20260505203459 | 23 | 60 | 4.8 | 8.0 | 0.00 | 0.08 | 0.08 | 39 | 1010.2 |
| 20260505202956 | 23 | 108 | 1.6 | 3.2 | 0.00 | 0.08 | 0.08 | 42 | 1010.2 |